Other Public Products
Issued by NWS Charleston, SC

Current Version | Previous Version | Text Only | Print | Product List | Glossary Off
Versions: 1 2 3 4 5 6 7 8 9 10 11 12 13 14 15 16 17 18 19 20 21 22 23 24 25 26 27 28 29 30 31 32 33 34 35 36 37 38 39 40 41 42 43 44 45 46 47 48 49 50

000
FPUS82 KCHS 191112
OPUCHS

TEST...KCHS/KSAV Gateway Observations...TEST
National Weather Service Charleston SC
600 AM EST FRI JAN 19 2018

NOTE: "fair" indicates few or no clouds below 12,000 feet with no
significant weather and/or obstructions to visibility.

SCZ050-WAZ558-NCZ071-TXZ119-213-PAZ071-DCZ001-FLZ074-172-MI076-
NYZ176-178-MAZ016-IL014-TNZ027-NJZ106-GAZ044-MD014-191200-

...Gateway Observations for Charleston International...

CITY           SKY/WX    TMP DP  RH WIND       PRES   REMARKS
Chas Airport   FAIR      29  18  63 CALM      30.29S
Seattle        PTCLDY    38  34  85 SE7       29.82S WCI  33
Charlotte      FAIR      26  20  77 CALM      30.20S
Dallas DFW     MOCLDY    41  21  44 S12       30.21F
Dallas Love    CLOUDY    40  21  46 S12       30.24F WCI  33
Philladelphia  FAIR      23  16  74 W7        30.10R WCI  15
Wash National  FAIR      27  21  78 CALM      30.12R
Baltimore      FAIR      22  14  71 CALM      30.10R
Miami          MOCLDY    50  46  86 N6        30.25R
Detroit        FAIR      22  14  71 SW12      29.97F WCI  10
Newark         FAIR      23  13  65 W8        30.07S WCI  14
Laguardia      MOCLDY    30  12  47 W13G21    30.06S WCI  20
J F K          FAIR      23  16  74 SW6       30.08S WCI  16
Boston Logan   MOCLDY    24  16  71 W13       29.97R WCI  12
Ft. Lauderdale MOCLDY    48  48 100 N6        30.24S
Chicago O`Hare FAIR      29  19  66 SW15      29.90F WCI  18
Chicago Midway FAIR      29  20  69 SW13      29.93F WCI  19
Houston Bush   CLOUDY    38  27  64 NE5       30.32F WCI  34
Houston Hobby  MOCLDY    40  30  67 E5        30.31F WCI  37
Nashville      FAIR      21  12  68 S6        30.31S WCI  13
Atlanta        FAIR      27  13  55 NW7       30.28F WCI  19

$$

GAZ044-118-TXZ119-213-NCZ071-DCZ001-MDZ014-506-PAZ021-071-NJZ106-
NYZ176-178-MAZ106-OHZ011-021-055-MIZ076-KYZ091-ILZ014-INZ047-
MNZ060-ONZ431-191200-

...Gateway Observations for Savannah International...

CITY           SKY/WX    TMP DP  RH WIND       PRES   REMARKS
Savannah Arpt  FAIR      29  18  63 W3        30.32S
Atlanta        FAIR      27  13  55 NW7       30.28F WCI  19
Charlotte      FAIR      26  20  77 CALM      30.20S
Dallas DFW     MOCLDY    41  21  44 S12       30.21F
Houston Bush   CLOUDY    38  27  64 NE5       30.32F WCI  34
Wash National  FAIR      27  21  78 CALM      30.12R
Wash Dulles    FAIR      19  14  81 CALM      30.10R
Baltimore      FAIR      22  14  71 CALM      30.10R
Philadelphia   FAIR      23  16  74 W7        30.10R WCI  15
Newark         FAIR      23  13  65 W8        30.07S WCI  14
Laguardia      MOCLDY    30  12  47 W13G21    30.06S WCI  20
J F K          FAIR      23  16  74 SW6       30.08S WCI  16
Boston         MOCLDY    24  16  71 W13       29.97R WCI  12
Pittsburg      FAIR      23  10  57 SW10      30.09S WCI  12
Akron          FAIR      20   9  62 SW13      30.06R WCI   7
Cleveland      FAIR      25  12  58 S10       30.07R WCI  15
Cincinnati     FAIR      20  12  71 S8        30.17S WCI  10
Columbus       FAIR      19  10  70 S10       30.15F WCI   7
Detroit        FAIR      22  14  71 SW12      29.97F WCI  10
Chicago O`Hare FAIR      29  19  66 SW15      29.90F WCI  18
Minneapolis    CLOUDY    31  27  85 S7        29.66F WCI  24
Indianapolis   FAIR      21  12  68 SW9       30.11F WCI  11
Toronto Canada MOCLDY    25  16  68 SW13G18   29.90S WCI  13

$$




USA.gov is the U.S. government's official web portal to all federal, state and local government web resources and services.